Location: ???????
(55.4362°N, 38.1183°E)
Time: 17:52:13
(UTC+00:00)

Cosmos 1486 Rocket - Pass Details

Date: 17 June 2021
Orbit: 759 x 783 km, 74.1° (Epoch: 29 July)

Event Time Altitude Azimuth Distance (km) Brightness Sun altitude
Rises 19:52:26 0° 331° (NNW) 3,245 9.5 -8.5°
Reaches altitude 10° 19:54:50 10° 330° (NNW) 2,312 8.1 -8.7°
Maximum altitude 20:00:03 73° 246° (WSW) 800 4.1 -8.9°
Enters shadow 20:04:55 12° 163° (SSE) 2,169 5.7 -9.2°
